Location: Champs
(48.8539°N, 2.6040°E)
Time: 20:22:40
(UTC+00:00)

ATLAS CENTAUR R/B - Pass Details

Date: 02 June 2022
Orbit: 443 x 688 km, 64.6° (Epoch: 07 June)

Event Time Altitude Azimuth Distance (km) Brightness Sun altitude
Rises 22:29:57 0° 308° (NW) 3,043 6.1 -16.8°
Reaches altitude 10° 22:33:12 10° 286° (WNW) 2,096 4.7 -16.9°
Maximum altitude 22:35:54 15° 251° (WSW) 1,736 3.8 -17.1°
Enters shadow 22:37:58 12° 223° (SW) 1,909 3.8 -17.2°
